KL-ALPHA B

Last updated on Wed Dec 18 2019 00:02:04 GMT+0000 (Coordinated Universal Time)

1 44786U 19077B 19351.18662722 -.00000278 00000-0 -75083-3 0 9991 2 44786 88.9220 125.1026 0253643 229.6525 128.2189 13.06091503 3889
UTC large
Height (km)
Speed (km/s)
/
Latitude / Longitude
Inclination (degrees)
Orbital Period (minutes)
Azimuth
Elevation
Range (km)
Doppler Factor

Next 0 passes for location: London (51.5072 / 0.1276)

Sorry there are no passes over London.